sat.trackr.live / text

‹ back to catalog

POLYTECH-UNIVERSE 3 (R*)

NORAD 57191 · 2023-091AB

PAYLOAD ACTIVE UNKNOWN

§ Identity

Operator
Country
CIS
Launch date
2023-06-27
Launch site
VOSTO
Launch vehicle
Mass (kg)
RCS (m²)

Purposes: comms

External: N2YO · Heavens-Above · Gunter

§ Orbital elements

Epoch: 2026-09-19T21:42:30.575520Z

Period
94.75 min
Inclination
97.4948°
Eccentricity
0.0015911
Mean motion
15.19852103 rev/d
Perigee alt
495.3 km
Apogee alt
517.2 km
Semi-major
6,884.4 km
B*
1.5419e-4
RAAN
320.0759°
Arg perigee
154.1213°
Mean anomaly
206.0821°
Rev number
17,833

§ Raw data

POLYTECH-UNIVERSE 3 (R*)1 57191U 23091AB  26262.90452055  .00003247  00000+0  15419-3 0  99942 57191  97.4948 320.0759 0015911 154.1213 206.0821 15.19852103178332

JSON: /api/v1/satellites/57191 · /tle

For live sub-satellite position, see the globe view (requires WebGL).

§ Visibility from observer

Set your observer location to see the next 7 days of passes ≥ 10°. The values pass through the URL so the page stays shareable.

No JS? Fill the form by hand. The geolocation button needs JavaScript.

§ Radio — SatNOGS DB

ModeDescriptionDownlinkUplink
LoRa Mode U - LoRa 62.5k 436.550 MHz
FSK [Experiment] LoRa (62.5 kHz bandwidth) (as FSK) 436.550 MHz

2 transmitters · refreshed weekly from db.satnogs.org